Location: Newark
(49.8348°N, 24.0280°E)
Time: 14:57:11
(UTC+00:00)

Transit 2A - Pass Details

Date: 29 January 2020
Orbit: 600 x 959 km, 66.7° (Epoch: 22 February)

Event Time Altitude Azimuth Distance (km) Brightness Sun altitude
Rises 17:18:24 0° 203° (SSW) 2,878 9.4 -20.2°
Reaches altitude 10° 17:20:41 10° 199° (SSW) 1,955 8.4 -20.6°
Maximum altitude 17:24:57 58° 121° (ESE) 707 5.5 -21.3°
Enters shadow 17:24:57 58° 121° (ESE) 707 5.5 -21.3°
Drops below altitude 10° 17:29:14 10° 43° (NE) 1,962 - -22.0°
Sets 17:31:32 0° 39° (NE) 2,890 - -22.3°
